[[{"header":{"parameterUnit":"m.s-1","parameterCategory":1,"la1":30.2991,"la2":30.254,"lo1":-89.0895,"lo2":-89.0444,"dy":0.0017,"dx":0.0017,"nx":28,"ny":28,"refTime":"2026-01-09T03:00:00:Z","depth":0,"parameterNumber":2,"parameterNumberName":"U-component_of_WINDS"},"data":[0,0,0,0,0,0,0,0,0,0,0,0,0,0,0,0,0,0,0,0,0,0,0,0,0,0,0,0,0,0,0,0,0,0,0,0,0,0,0,0,0,0,0,0,0,0,0,0,0,0,0,0,0,0,0,0,0,0,2.023,2.023,0,2.0284,2.0284,2.0285,2.0294,2.0294,2.0293,2.0293,2.0348,2.035,2.0351,0,0,0,0,0,0,0,0,0,0,0,0,0,2.0137,2.0138,2.023,2.023,2.0231,2.0284,2.0284,2.0285,2.0294,2.0294,2.0293,2.0293,2.0347,2.0349,2.0352,0,0,0,0,0,0,0,0,0,0,0,0,0,2.0182,2.0139,2.023,2.0242,2.0244,2.0283,2.0284,2.0285,2.0294,2.0294,2.0293,2.0292,2.0346,2.0349,2.0352,2.0383,0,0,2.0361,2.0362,0,0,0,0,0,0,0,0,2.018,2.0186,2.024,2.0241,2.0243,2.0281,2.0272,2.0318,2.0294,2.0275,2.0293,2.0292,2.0326,2.0331,2.0342,2.0386,2.0388,2.0361,2.0363,2.0364,2.0365,0,0,0,0,0,0,0,2.0177,2.0183,2.0251,2.024,2.0243,2.0245,2.0251,2.028,2.0304,2.0277,2.0277,2.0284,2.0327,2.0339,2.0344,2.0389,2.0361,2.0363,2.0365,2.0366,2.0463,2.0464,0,0,0,0,0,0,2.0171,2.0181,2.0249,2.0253,2.0209,2.0248,2.0254,2.027,2.0304,2.0308,2.0284,2.0284,2.0335,2.034,2.0346,2.0385,2.0364,2.0366,2.0368,2.0462,2.0463,2.0464,0,0,0,0,0,0,2.0169,2.0177,2.0247,2.0217,2.0226,2.025,2.0268,2.0271,2.0284,2.0309,2.0314,2.0293,2.0335,2.0342,2.0374,2.0387,2.0368,2.037,2.0461,2.0462,2.0463,2.0464,0,0,0,0,0,0,2.0166,2.0176,2.0188,2.0217,2.0228,2.0274,2.0268,2.0273,2.0289,2.0289,2.0318,2.0322,2.0335,2.037,2.0377,2.0391,2.0372,2.046,2.0462,2.0463,2.0463,2.0466,2.0468,0,0,0,0,0,2.0163,2.0185,2.0188,2.0196,2.0243,2.0275,2.0281,2.0295,2.029,2.0302,2.0319,2.0321,2.0385,2.0373,2.0381,2.0396,2.0459,2.0461,2.0463,2.0462,2.0465,2.0468,0,0,0,0,0,0,2.0156,2.0189,2.0193,2.0226,2.0248,2.0276,2.0292,2.0297,2.0321,2.032,2.0336,2.0343,2.0375,2.0389,2.0375,2.0429,2.0422,2.0425,2.0419,2.0421,2.0424,2.0419,2.0375,0,0,0,0,0,2.0159,2.0182,2.021,2.0236,2.0247,2.0268,2.0282,2.0291,2.0315,2.0324,2.0343,2.0366,2.0391,2.0407,2.0432,2.0466,2.0473,2.048,2.0483,2.0484,2.0487,2.0508,2.0512,2.047,2.047,2.047,0,0,2.0164,2.0185,2.0198,2.0235,2.0253,2.0278,2.0275,2.0301,2.0319,2.0328,2.036,2.0375,2.0402,2.0435,2.0451,2.0448,2.05,2.0487,2.0488,2.049,2.051,2.0514,2.0517,2.0472,2.0471,2.0471,0,0,2.0185,2.0203,2.0228,2.0246,2.0274,2.0288,2.0294,2.0323,2.0334,2.0366,2.0374,2.0396,2.0439,2.0458,2.0473,2.0505,2.0509,2.0513,2.0524,2.0544,2.0547,2.055,2.0562,2.0566,2.0516,2.0516,2.0516,0,2.0188,2.0224,2.0239,2.0265,2.0282,2.0292,2.0317,2.0335,2.0369,2.038,2.0377,2.0432,2.0451,2.049,2.0498,2.051,2.0518,2.0509,2.0545,2.0548,2.0551,2.0563,2.0567,2.0516,2.0516,2.0516,2.0516,0,2.0227,2.0252,2.0269,2.0302,2.0321,2.0346,2.0366,2.0384,2.0392,2.0407,2.0441,2.0464,2.0494,2.0504,2.0512,2.0545,2.0543,2.0542,2.0535,2.0555,2.0567,2.0571,2.0516,2.0516,2.0516,2.0516,0,0,2.0243,2.0287,2.0293,2.0309,2.0341,2.0362,2.0389,2.0418,2.0433,2.0457,2.0481,2.0518,2.0519,2.0536,2.0546,2.0564,2.0589,2.0561,2.0562,2.0566,2.0629,2.0629,2.0633,2.0592,2.0593,2.0594,2.0626,0,2.0269,2.0316,2.0332,2.0372,2.0397,2.0408,2.0431,2.0454,2.047,2.0493,2.051,2.0537,2.0535,2.0546,2.0564,2.0582,2.0602,2.058,2.0615,2.0616,2.0607,2.0639,2.0639,2.0668,2.0631,2.0632,2.0632,0,2.0304,2.033,2.0372,2.0404,2.0415,2.0435,2.0465,2.0487,2.0514,2.0525,2.0545,2.0555,2.0584,2.0576,2.0618,2.0603,2.0618,2.063,2.0631,2.0635,2.0625,2.0643,2.0678,2.0682,2.0639,2.0639,2.0638,0,2.0313,2.0358,2.039,2.0403,2.044,2.0455,2.0471,2.0497,2.0515,2.0542,2.0553,2.0583,2.0599,2.0622,2.064,2.0632,2.068,2.0673,2.069,2.0689,2.0698,2.0697,2.0736,2.0709,2.0709,2.0709,2.0709,0,2.034,2.0365,2.0394,2.0413,2.0443,2.0462,2.0491,2.0508,2.0532,2.0555,2.0567,2.0589,2.0611,2.0636,2.0651,2.0684,2.0691,2.07,2.0703,2.0699,2.0698,2.0709,2.0707,2.071,2.071,2.0709,2.0709,0,2.0353,2.0374,2.0409,2.0442,2.0451,2.0472,2.05,2.052,2.0537,2.0567,2.0575,2.0601,2.0632,2.0652,2.0691,2.0701,2.0736,2.0739,2.0727,2.0729,2.0744,2.0743,2.0791,2.0798,2.0766,2.0767,2.0767,0,2.0369,2.0389,2.0425,2.0441,2.0458,2.0484,2.0503,2.0523,2.0542,2.0576,2.0592,2.0623,2.0649,2.0698,2.0721,2.0751,2.0755,2.077,2.076,2.0755,2.0756,2.0754,2.0757,2.0771,2.0772,2.0772,2.0772,0,2.0394,2.0404,2.043,2.046,2.0482,2.0507,2.0532,2.0545,2.057,2.0591,2.0622,2.0643,2.0684,2.0715,2.0748,2.0766,2.0773,2.0775,2.0781,2.0776,2.0768,2.0773,2.0732,2.0774,2.0774,2.0774,2.0773,2.0773,2.0409,2.0428,2.0457,2.0486,2.0507,2.0531,2.0552,2.0572,2.0598,2.0633,2.0644,2.0677,2.0706,2.0751,2.0769,2.0796,2.0795,2.0803,2.0804,2.0806,2.0806,2.0765,2.0802,2.0802,2.0802,2.0802,2.0802,0,2.0435,2.0455,2.0482,2.0517,2.054,2.0546,2.0575,2.0594,2.0623,2.065,2.0676,2.0713,2.0745,2.0771,2.0803,2.082,2.0824,2.0828,2.0827,2.0831,2.0806,2.0798,2.0824,2.0824,2.0824,2.0824,2.0824,2.0824,2.0452,2.0485,2.0498,2.0542,2.0562,2.0595,2.0611,2.0633,2.0654,2.0695,2.0722,2.0739,2.0766,2.0801,2.083,2.0837,2.0849,2.0851,2.0859,2.0835,2.0832,2.083,2.0823,2.0854,2.0854,2.0882,2.0882,2.0883]},{"header":{"parameterUnit":"m.s-1","parameterCategory":1,"la1":30.2991,"la2":30.254,"lo1":-89.0895,"lo2":-89.0444,"dy":0.0017,"dx":0.0017,"nx":28,"ny":28,"refTime":"2026-01-09T03:00:00:Z","depth":0,"parameterNumber":3,"parameterNumberName":"V-component_of_WINDS"},"data":[0,0,0,0,0,0,0,0,0,0,0,0,0,0,0,0,0,0,0,0,0,0,0,0,0,0,0,0,0,0,0,0,0,0,0,0,0,0,0,0,0,0,0,0,0,0,0,0,0,0,0,0,0,0,0,0,0,0,-7.321,-7.3212,0,-7.3364,-7.3366,-7.3368,-7.3365,-7.3363,-7.3361,-7.3359,-7.351,-7.3516,-7.3522,0,0,0,0,0,0,0,0,0,0,0,0,0,-7.291,-7.2915,-7.321,-7.3212,-7.3214,-7.3364,-7.3366,-7.3368,-7.3365,-7.3363,-7.336,-7.3358,-7.3508,-7.3515,-7.3523,0,0,0,0,0,0,0,0,0,0,0,0,0,-7.3049,-7.2917,-7.321,-7.3231,-7.3234,-7.3363,-7.3366,-7.3369,-7.3366,-7.3363,-7.336,-7.3357,-7.3506,-7.3515,-7.3524,-7.364,0,0,-7.3551,-7.3555,0,0,0,0,0,0,0,0,-7.3041,-7.306,-7.3226,-7.3229,-7.3234,-7.3342,-7.3316,-7.3459,-7.3367,-7.3316,-7.3359,-7.3355,-7.3457,-7.3469,-7.3505,-7.3647,-7.3654,-7.3552,-7.3557,-7.3561,-7.3563,0,0,0,0,0,0,0,-7.3032,-7.3054,-7.3271,-7.3228,-7.3233,-7.3231,-7.3248,-7.3343,-7.3401,-7.332,-7.332,-7.3339,-7.3458,-7.3496,-7.3508,-7.3656,-7.3551,-7.3559,-7.3565,-7.3568,-7.3904,-7.3907,0,0,0,0,0,0,-7.3018,-7.3046,-7.3266,-7.3275,-7.3128,-7.3239,-7.3257,-7.331,-7.34,-7.3411,-7.3341,-7.3338,-7.3482,-7.3498,-7.3514,-7.3657,-7.3561,-7.3569,-7.3574,-7.39,-7.3905,-7.3908,0,0,0,0,0,0,-7.3012,-7.3038,-7.326,-7.3161,-7.3189,-7.3248,-7.3307,-7.3315,-7.3353,-7.3416,-7.3426,-7.337,-7.3481,-7.3501,-7.361,-7.3662,-7.3573,-7.3581,-7.3896,-7.3902,-7.3907,-7.3945,0,0,0,0,0,0,-7.3003,-7.3036,-7.3081,-7.3162,-7.3194,-7.3354,-7.331,-7.332,-7.3369,-7.3367,-7.3446,-7.3456,-7.348,-7.3596,-7.3618,-7.3673,-7.3588,-7.3892,-7.3899,-7.3905,-7.3939,-7.3951,-7.3961,0,0,0,0,0,-7.2993,-7.3084,-7.3084,-7.311,-7.3253,-7.3357,-7.3376,-7.3403,-7.3374,-7.3419,-7.3461,-7.3453,-7.3653,-7.3607,-7.3632,-7.369,-7.3888,-7.3897,-7.3904,-7.3934,-7.3948,-7.396,0,0,0,0,0,0,-7.3005,-7.3095,-7.3095,-7.3216,-7.3279,-7.3357,-7.3415,-7.3417,-7.3488,-7.3483,-7.3512,-7.353,-7.3639,-7.3675,-7.3623,-7.3809,-7.3767,-7.378,-7.3781,-7.3795,-7.3806,-7.3794,-7.3596,0,0,0,0,0,-7.3022,-7.3102,-7.3175,-7.3274,-7.3306,-7.3356,-7.3402,-7.3418,-7.3484,-7.351,-7.3559,-7.3622,-7.3699,-7.3749,-7.3824,-7.3945,-7.3962,-7.3997,-7.4008,-7.4016,-7.4027,-7.4095,-7.4112,-7.3935,-7.3935,-7.3935,0,0,-7.3058,-7.3117,-7.3164,-7.3278,-7.3329,-7.341,-7.3378,-7.3463,-7.3523,-7.3523,-7.3629,-7.3667,-7.3739,-7.3855,-7.3909,-7.3889,-7.4081,-7.4027,-7.4033,-7.4039,-7.4105,-7.4122,-7.4137,-7.394,-7.3939,-7.3938,0,0,-7.3163,-7.3216,-7.3306,-7.3359,-7.3438,-7.347,-7.3492,-7.357,-7.3596,-7.3704,-7.3706,-7.3777,-7.3909,-7.3961,-7.4005,-7.4134,-7.413,-7.4157,-7.4214,-7.428,-7.4294,-7.4306,-7.4353,-7.4369,-7.4168,-7.4168,-7.4168,0,-7.3197,-7.332,-7.335,-7.3438,-7.3488,-7.3495,-7.3586,-7.3635,-7.3733,-7.3767,-7.3745,-7.3913,-7.3961,-7.409,-7.4122,-7.4157,-7.4182,-7.4148,-7.429,-7.4302,-7.4314,-7.4359,-7.4377,-7.4171,-7.4171,-7.417,-7.417,0,-7.3357,-7.3443,-7.3505,-7.3603,-7.3661,-7.3749,-7.3793,-7.3847,-7.3859,-7.3894,-7.4004,-7.4064,-7.4151,-7.4183,-7.4194,-7.4315,-7.43,-7.4283,-7.4242,-7.4334,-7.4376,-7.4394,-7.4175,-7.4174,-7.4173,-7.4173,0,0,-7.3473,-7.359,-7.3612,-7.3658,-7.3747,-7.3813,-7.3902,-7.399,-7.4036,-7.4105,-7.418,-7.4293,-7.428,-7.4329,-7.4346,-7.4405,-7.4505,-7.4381,-7.4383,-7.4402,-7.4641,-7.4653,-7.4673,-7.4503,-7.4507,-7.4509,-7.4635,0,-7.3588,-7.3749,-7.378,-7.3919,-7.3998,-7.4008,-7.4085,-7.4148,-7.4184,-7.4255,-7.4294,-7.4374,-7.4349,-7.438,-7.4438,-7.448,-7.4553,-7.4471,-7.4572,-7.4576,-7.4554,-7.4695,-7.4707,-7.4823,-7.4652,-7.4655,-7.4657,0,-7.3743,-7.3819,-7.3966,-7.4048,-7.4082,-7.4152,-7.4236,-7.4305,-7.4377,-7.4399,-7.4456,-7.4468,-7.456,-7.4516,-7.4643,-7.4587,-7.4631,-7.4658,-7.4663,-7.4673,-7.4621,-7.4708,-7.486,-7.4878,-7.4683,-7.4681,-7.4679,0,-7.3813,-7.3952,-7.4059,-7.4097,-7.4194,-7.4243,-7.4285,-7.4354,-7.4406,-7.448,-7.4514,-7.4596,-7.4641,-7.4705,-7.4738,-7.4702,-7.4864,-7.4821,-7.4884,-7.4883,-7.4916,-7.4913,-7.5077,-7.4945,-7.4945,-7.4944,-7.4944,0,-7.3938,-7.4028,-7.4092,-7.4157,-7.4258,-7.4294,-7.4393,-7.4435,-7.4496,-7.457,-7.4582,-7.465,-7.4691,-7.4764,-7.4791,-7.4893,-7.4913,-7.4933,-7.4939,-7.4932,-7.4929,-7.496,-7.4952,-7.4949,-7.4948,-7.4947,-7.4946,0,-7.4033,-7.4079,-7.4196,-7.428,-7.4303,-7.4374,-7.4445,-7.4509,-7.4546,-7.4639,-7.4662,-7.472,-7.4808,-7.4848,-7.4956,-7.4974,-7.509,-7.509,-7.5067,-7.5069,-7.5129,-7.5123,-7.5318,-7.5345,-7.5195,-7.5196,-7.5197,0,-7.4109,-7.4179,-7.4272,-7.4323,-7.4368,-7.445,-7.4504,-7.4542,-7.4598,-7.4687,-7.474,-7.4829,-7.4902,-7.5042,-7.5092,-7.5175,-7.5177,-7.524,-7.5189,-7.5181,-7.5178,-7.5174,-7.5181,-7.5248,-7.525,-7.5251,-7.5252,0,-7.424,-7.4261,-7.4339,-7.4427,-7.4492,-7.4562,-7.4631,-7.4672,-7.4721,-7.4783,-7.4875,-7.4932,-7.5044,-7.5132,-7.5219,-7.5261,-7.5265,-7.5268,-7.5287,-7.528,-7.5264,-7.5274,-7.5091,-7.5263,-7.5262,-7.5261,-7.5261,-7.526,-7.4328,-7.4392,-7.4468,-7.4555,-7.4612,-7.4677,-7.4742,-7.4789,-7.4866,-7.4962,-7.498,-7.5078,-7.5149,-7.5267,-7.5313,-7.5389,-7.5374,-7.5401,-7.5408,-7.5414,-7.5417,-7.5253,-7.5404,-7.5404,-7.5404,-7.5404,-7.5404,0,-7.446,-7.451,-7.4591,-7.4689,-7.4758,-7.4759,-7.4836,-7.4893,-7.498,-7.5047,-7.5121,-7.5227,-7.5313,-7.5372,-7.5459,-7.5509,-7.5513,-7.553,-7.5527,-7.5536,-7.5425,-7.5401,-7.5526,-7.5526,-7.5526,-7.5526,-7.5526,-7.5526,-7.4537,-7.4645,-7.4675,-7.4811,-7.486,-7.4958,-7.5002,-7.5062,-7.5116,-7.5235,-7.5308,-7.5347,-7.5411,-7.5504,-7.5583,-7.5598,-7.563,-7.5648,-7.5662,-7.5557,-7.5544,-7.5532,-7.5509,-7.5654,-7.5655,-7.5767,-7.5768,-7.5769]}]]